Погода в Ботукату

Бразилия     22°54′01″S   48°27′19″W
темп.,
°C
ветер,
м/с
пор.,
м/с
влажн.,
%
обл.,
%
осадки,
мм/ч
давл.,
гПа
погр.,
м
27 февраля, сб
сб2700:00+17юв4119752 0.0 1014411
03:00+17юв379937 0.0 1013289
06:00+16вюв259948 0.0 1014172
09:00+21в248141 0.0 1015520
12:00+24св227330 1.3 1014871
15:00+24вюв238124 5.4 1011881
18:00+21юв389110 3.6 1011423
21:00+18юв4129751 5.1 1013438
28 февраля, вс
вс2800:00+18вюв499999 0.4 1014449
03:00+18в389898 0.6 1012417
06:00+18всв389596 0.1 1013350
09:00+22всв377583 0.1 1014574
12:00+25ссв476352 0.9 10141177
15:00+24ссв347931 4.1 1011835
18:00+21вюв138870 1.8 1010104
21:00+20вюв268283 1.8 1012157
1 марта, пн
пн100:00+18вюв289420 0.1 1013210
03:00+18в249437 0.1 1012117
06:00+17всв249417 0.0 101398
09:00+23ссв487319 0.0 1013805
12:00+26с47621 0.1 10121231
15:00+25с45681 1.2 10101209
18:00+23св13832 1.5 1010231
21:00+19всв12932 3.9 101223
2 марта, вт
вт200:00+19всв249567 4.4 1013113
03:00+18всв249483 4.6 101288
06:00+18всв249584 0.0 101389
09:00+23ссв487693 0.0 1015623
12:00+24с358097 1.8 1014954
15:00+25с346999 3.5 10121029
18:00+23с148596 4.4 1011106
21:00+20ссв019098 6.0 101423
3 марта, ср
ср300:00+20св1290100 0.8 101526
03:00+19св1287100 1.1 101427
06:00+19с1294100 3.1 101549
09:00+22с3982100 3.1 1017542
12:00+24ссз468058 0.8 1015808
15:00+23сз248879 5.0 1013584
18:00+22сз1191100 1.9 101223
21:00+20в0192100 2.2 101523